{"data":{"norad_id":67167,"epoch":"2026-09-19T09:11:09.073824Z","epoch_age_seconds":174487,"freshness":"STALE","line1":"1 67167U 25303E   26262.38274391  .00009242  00000+0  34499-3 0  9993","line2":"2 67167  43.0007 297.2176 0001132 254.5351 105.5376 15.27576478 42352","mean_motion":15.27576478,"eccentricity":0.0001132,"inclination_deg":43.0007,"raan_deg":297.2176,"arg_perigee_deg":254.5351,"mean_anomaly_deg":105.5376,"bstar":0.00034499,"rev_number":4235,"period_min":94.266966056281,"perigee_km":482.28295473505,"apogee_km":483.83632965484,"semimajor_km":6861.1966421949,"source":"CELESTRAK","updated_at":"2026-09-21T09:00:36.110717Z"}}